Regional Weather Roundup
Issued by NWS

Current Version | Previous Version | Text Only | Print | Product List | Glossary On
Versions: 1 2 3 4 5 6 7 8 9 10 11 12 13 14 15 16 17 18 19 20 21 22 23 24 25 26 27 28
000
ASUS44 KBMX 300110
RWRAL

ALABAMA REGIONAL WEATHER ROUNDUP
NATIONAL WEATHER SERVICE BIRMINGHAM AL
800 PM CDT WED JUN 29 2016

NOTE: "FAIR" INDICATES FEW OR NO CLOUDS BELOW 12,000 FEET
WITH NO SIGNIFICANT WEATHER AND/OR OBSTRUCTIONS TO VISIBILITY.

THE REMARK "TC" DENOTES TEMPERATURE IN DEGREES CELSIUS.

ALZ001>011-014-016>018-020-300200-
NORTH ALABAMA

CITY           SKY/WX    TMP DP  RH WIND       PRES   REMARKS
MUSCLE SHOALS  CLEAR     79  61  53 N5        30.00S
HUNTSVILLE     PTCLDY    82  57  42 N9        29.98S
DECATUR        CLEAR     80  60  50 N8        29.99R
HALEYVILLE     FAIR      78  63  59 N5        30.02R
GADSDEN        CLEAR     83  63  50 NW7       29.96R
$$

ALZ012-013-022-023-030>036-040>044-300200-
WEST CENTRAL ALABAMA

CITY           SKY/WX    TMP DP  RH WIND       PRES   REMARKS
TUSCALOOSA     CLEAR     87  65  47 N5        29.93S
$$

ALZ015-024>027-033>036-040>044-300200-
CENTRAL ALABAMA

CITY           SKY/WX    TMP DP  RH WIND       PRES   REMARKS
BIRMINGHAM     PTCLDY    84  65  52 N6        29.98R
MONTGOMERY     PTCLDY    81  70  69 NW6       29.94R
SHELBY CO ARPT CLEAR     84  69  60 W5        29.94R
MAXWELL AFB    CLOUDY    80  72  77 SW3       29.93R
GREENVILLE     FAIR      81  72  74 CALM      29.94S
$$

ALZ019-021-028-029-037-038-045>048-300200-
EAST CENTRAL ALABAMA

CITY           SKY/WX    TMP DP  RH WIND       PRES   REMARKS
ANNISTON       PTCLDY    88  61  40 N6        29.94R
ALEXANDER CITY PTCLDY    80  74  82 SW3       29.96R
AUBURN         PTCLDY    78  66  66 S3        29.97R
$$

ALZ051>064-300200-
SOUTHWEST ALABAMA

CITY           SKY/WX    TMP DP  RH WIND       PRES   REMARKS
MOBILE         CLOUDY    77  74  90 CALM      29.96F
BROOKLEY FIELD PTCLDY    77  74  90 CALM      29.97R
EVERGREEN      CLOUDY    81  71  71 CALM      29.95R
$$

ALZ049-050-065>069-300200-
SOUTHEAST ALABAMA

CITY           SKY/WX    TMP DP  RH WIND       PRES   REMARKS
DOTHAN         MOCLDY    79  69  71 SW7       29.99R
OZARK          CLOUDY    80  72  78 S5        29.95R
TROY           CLOUDY    82  72  71 CALM      29.95S
EUFAULA        FAIR      80  75  84 CALM      29.93S
$$




USA.gov is the U.S. government's official web portal to all federal, state and local government web resources and services.